Year,Month,Day,Hour,Minute,Value (Times are PST for windgust in km/hr)
2010,04,09,00,00,11.30
2010,04,09,00,01,9.60
2010,04,09,00,02,9.60
2010,04,09,00,03,14.50
2010,04,09,00,04,11.30
2010,04,09,00,05,12.90
2010,04,09,00,06,11.30
2010,04,09,00,07,11.30
2010,04,09,00,08,11.30
2010,04,09,00,09,16.10
2010,04,09,00,10,11.30
2010,04,09,00,11,8.10
2010,04,09,00,12,9.60
2010,04,09,00,13,4.80
2010,04,09,00,14,9.60
2010,04,09,00,15,8.10
2010,04,09,00,16,8.10
2010,04,09,00,17,8.10
2010,04,09,00,18,4.80
2010,04,09,00,19,3.20
2010,04,09,00,20,4.80
2010,04,09,00,21,4.80
2010,04,09,00,22,6.40
2010,04,09,00,23,4.80
2010,04,09,00,24,4.80
2010,04,09,00,25,3.20
2010,04,09,00,26,8.10
2010,04,09,00,27,4.80
2010,04,09,00,28,4.80
2010,04,09,00,29,1.60
2010,04,09,00,30,1.60
2010,04,09,00,31,6.40
2010,04,09,00,32,3.20
2010,04,09,00,33,1.60
2010,04,09,00,34,6.40
2010,04,09,00,35,6.40
2010,04,09,00,36,3.20
2010,04,09,00,37,4.80
2010,04,09,00,38,1.60
2010,04,09,00,39,1.60
2010,04,09,00,40,4.80
2010,04,09,00,41,4.80
2010,04,09,00,42,4.80
2010,04,09,00,43,6.40
2010,04,09,00,44,6.40
2010,04,09,00,45,6.40
2010,04,09,00,46,4.80
2010,04,09,00,47,3.20
2010,04,09,00,48,4.80
2010,04,09,00,49,4.80
2010,04,09,00,50,4.80
2010,04,09,00,51,6.40
2010,04,09,00,52,4.80
2010,04,09,00,53,6.40
2010,04,09,00,54,6.40
2010,04,09,00,56,9.60
2010,04,09,00,57,4.80
2010,04,09,00,58,4.80
2010,04,09,00,59,4.80
2010,04,09,01,00,4.80
2010,04,09,01,01,9.60
2010,04,09,01,02,9.60
2010,04,09,01,03,4.80
2010,04,09,01,04,8.10
2010,04,09,01,05,9.60
2010,04,09,01,06,14.50
2010,04,09,01,07,8.10
2010,04,09,01,08,11.30
2010,04,09,01,09,9.60
2010,04,09,01,10,8.10
2010,04,09,01,11,8.10
2010,04,09,01,12,4.80
2010,04,09,01,13,4.80
2010,04,09,01,14,1.60
2010,04,09,01,22,1.60
2010,04,09,01,23,3.20
2010,04,09,01,24,3.20
2010,04,09,01,25,3.20
2010,04,09,01,26,1.60
2010,04,09,01,28,1.60
2010,04,09,01,34,1.60
2010,04,09,01,35,3.20
2010,04,09,01,36,3.20
2010,04,09,01,37,1.60
2010,04,09,01,40,1.60
2010,04,09,01,41,1.60
2010,04,09,01,42,1.60
2010,04,09,01,44,3.20
2010,04,09,01,45,3.20
2010,04,09,01,46,3.20
2010,04,09,01,47,3.20
2010,04,09,01,48,3.20
2010,04,09,01,49,4.80
2010,04,09,01,50,1.60
2010,04,09,01,51,3.20
2010,04,09,01,52,4.80
2010,04,09,01,53,3.20
2010,04,09,01,54,3.20
2010,04,09,01,55,4.80
2010,04,09,01,56,3.20
2010,04,09,01,57,3.20
2010,04,09,01,58,3.20
2010,04,09,01,59,3.20
2010,04,09,02,00,8.10
2010,04,09,02,01,6.40
2010,04,09,02,02,4.80
2010,04,09,02,03,4.80
2010,04,09,02,04,6.40
2010,04,09,02,05,4.80
2010,04,09,02,06,11.30
2010,04,09,02,07,8.10
2010,04,09,02,08,6.40
2010,04,09,02,09,6.40
2010,04,09,02,10,4.80
2010,04,09,02,11,3.20
2010,04,09,02,12,8.10
2010,04,09,02,13,11.30
2010,04,09,02,14,8.10
2010,04,09,02,15,3.20
2010,04,09,02,16,3.20
2010,04,09,02,17,3.20
2010,04,09,02,18,3.20
2010,04,09,02,19,4.80
2010,04,09,02,20,1.60
2010,04,09,02,21,3.20
2010,04,09,02,22,3.20
2010,04,09,02,23,3.20
2010,04,09,02,24,3.20
2010,04,09,02,25,3.20
2010,04,09,02,26,3.20
2010,04,09,02,27,3.20
2010,04,09,02,28,3.20
2010,04,09,02,29,1.60
2010,04,09,02,30,4.80
2010,04,09,02,31,1.60
2010,04,09,02,32,3.20
2010,04,09,02,33,4.80
2010,04,09,02,34,3.20
2010,04,09,02,35,4.80
2010,04,09,02,36,6.40
2010,04,09,02,37,4.80
2010,04,09,02,38,3.20
2010,04,09,02,39,1.60
2010,04,09,02,40,3.20
2010,04,09,02,41,1.60
2010,04,09,02,42,1.60
2010,04,09,02,43,4.80
2010,04,09,02,44,1.60
2010,04,09,02,45,3.20
2010,04,09,02,46,4.80
2010,04,09,02,47,3.20
2010,04,09,02,48,1.60
2010,04,09,02,49,3.20
2010,04,09,02,50,6.40
2010,04,09,02,51,4.80
2010,04,09,02,52,3.20
2010,04,09,02,53,3.20
2010,04,09,02,54,3.20
2010,04,09,02,55,3.20
2010,04,09,02,56,6.40
2010,04,09,02,57,3.20
2010,04,09,02,58,3.20
2010,04,09,02,59,1.60
2010,04,09,03,00,1.60
2010,04,09,03,01,3.20
2010,04,09,03,02,3.20
2010,04,09,03,03,6.40
2010,04,09,03,04,8.10
2010,04,09,03,05,8.10
2010,04,09,03,06,6.40
2010,04,09,03,07,4.80
2010,04,09,03,08,3.20
2010,04,09,03,09,3.20
2010,04,09,03,10,3.20
2010,04,09,03,11,4.80
2010,04,09,03,12,3.20
2010,04,09,03,13,1.60
2010,04,09,03,14,1.60
2010,04,09,03,15,3.20
2010,04,09,03,16,3.20
2010,04,09,03,17,3.20
2010,04,09,03,18,1.60
2010,04,09,03,19,1.60
2010,04,09,03,21,1.60
2010,04,09,03,22,1.60
2010,04,09,03,23,1.60
2010,04,09,03,24,1.60
2010,04,09,03,26,1.60
2010,04,09,03,27,1.60
2010,04,09,03,28,1.60
2010,04,09,03,29,1.60
2010,04,09,03,31,4.80
2010,04,09,03,32,4.80
2010,04,09,03,33,4.80
2010,04,09,03,34,4.80
2010,04,09,03,35,3.20
2010,04,09,03,36,3.20
2010,04,09,03,37,3.20
2010,04,09,03,38,3.20
2010,04,09,03,39,6.40
2010,04,09,03,40,4.80
2010,04,09,03,41,4.80
2010,04,09,03,42,6.40
2010,04,09,03,43,4.80
2010,04,09,03,44,3.20
2010,04,09,03,45,4.80
2010,04,09,03,46,3.20
2010,04,09,03,47,3.20
2010,04,09,03,48,3.20
2010,04,09,03,49,6.40
2010,04,09,03,50,4.80
2010,04,09,03,51,3.20
2010,04,09,03,52,4.80
2010,04,09,03,53,1.60
2010,04,09,03,54,1.60
2010,04,09,03,55,8.10
2010,04,09,03,56,3.20
2010,04,09,03,57,6.40
2010,04,09,03,58,6.40
2010,04,09,03,59,3.20
2010,04,09,04,00,4.80
2010,04,09,04,01,4.80
2010,04,09,04,02,4.80
2010,04,09,04,03,3.20
2010,04,09,04,04,4.80
2010,04,09,04,05,4.80
2010,04,09,04,06,3.20
2010,04,09,04,07,3.20
2010,04,09,04,08,3.20
2010,04,09,04,09,4.80
2010,04,09,04,10,4.80
2010,04,09,04,11,3.20
2010,04,09,04,12,3.20
2010,04,09,04,14,1.60
2010,04,09,04,15,3.20
2010,04,09,04,16,3.20
2010,04,09,04,17,4.80
2010,04,09,04,18,3.20
2010,04,09,04,19,3.20
2010,04,09,04,20,4.80
2010,04,09,04,21,4.80
2010,04,09,04,22,4.80
2010,04,09,04,23,4.80
2010,04,09,04,24,4.80
2010,04,09,04,25,4.80
2010,04,09,04,26,4.80
2010,04,09,04,27,4.80
2010,04,09,04,28,4.80
2010,04,09,04,29,4.80
2010,04,09,04,30,4.80
2010,04,09,04,31,3.20
2010,04,09,04,32,3.20
2010,04,09,04,33,3.20
2010,04,09,04,34,3.20
2010,04,09,04,35,3.20
2010,04,09,04,36,3.20
2010,04,09,04,37,3.20
2010,04,09,04,38,3.20
2010,04,09,04,39,1.60
2010,04,09,04,40,1.60
2010,04,09,04,41,1.60
2010,04,09,04,42,1.60
2010,04,09,04,43,1.60
2010,04,09,04,46,3.20
2010,04,09,04,47,1.60
2010,04,09,04,48,1.60
2010,04,09,04,49,1.60
2010,04,09,04,50,1.60
2010,04,09,04,51,3.20
2010,04,09,05,48,1.60
2010,04,09,05,49,3.20
2010,04,09,05,50,1.60
2010,04,09,06,01,1.60
2010,04,09,06,02,1.60
2010,04,09,06,04,3.20
2010,04,09,06,05,3.20
2010,04,09,06,06,1.60
2010,04,09,06,11,1.60
2010,04,09,06,13,3.20
2010,04,09,06,14,3.20
2010,04,09,06,15,4.80
2010,04,09,06,16,3.20
2010,04,09,06,39,4.80
2010,04,09,06,40,4.80
2010,04,09,06,41,4.80
2010,04,09,06,42,4.80
2010,04,09,06,43,4.80
2010,04,09,06,44,6.40
2010,04,09,06,45,6.40
2010,04,09,06,46,8.10
2010,04,09,06,47,6.40
2010,04,09,06,48,6.40
2010,04,09,06,49,8.10
2010,04,09,06,50,9.60
2010,04,09,06,51,6.40
2010,04,09,06,52,6.40
2010,04,09,06,53,6.40
2010,04,09,06,54,6.40
2010,04,09,06,55,8.10
2010,04,09,06,56,8.10
2010,04,09,06,57,8.10
2010,04,09,06,58,8.10
2010,04,09,06,59,6.40
2010,04,09,07,00,8.10
2010,04,09,07,01,8.10
2010,04,09,07,02,8.10
2010,04,09,07,03,6.40
2010,04,09,07,04,4.80
2010,04,09,07,05,4.80
2010,04,09,07,06,4.80
2010,04,09,07,07,4.80
2010,04,09,07,08,3.20
2010,04,09,07,09,4.80
2010,04,09,07,10,3.20
2010,04,09,07,11,1.60
2010,04,09,07,12,6.40
2010,04,09,07,13,4.80
2010,04,09,07,14,6.40
2010,04,09,07,15,8.10
2010,04,09,07,16,8.10
2010,04,09,07,17,8.10
2010,04,09,07,18,8.10
2010,04,09,07,19,6.40
2010,04,09,07,20,8.10
2010,04,09,07,21,6.40
2010,04,09,07,22,8.10
2010,04,09,07,23,6.40
2010,04,09,07,24,6.40
2010,04,09,07,25,3.20
2010,04,09,07,26,3.20
2010,04,09,07,27,4.80
2010,04,09,07,28,4.80
2010,04,09,07,29,3.20
2010,04,09,07,30,6.40
2010,04,09,07,31,4.80
2010,04,09,07,32,4.80
2010,04,09,07,33,4.80
2010,04,09,07,34,1.60
2010,04,09,07,50,1.60
2010,04,09,07,51,1.60
2010,04,09,07,52,4.80
2010,04,09,07,53,3.20
2010,04,09,07,57,1.60
2010,04,09,08,04,1.60
2010,04,09,08,05,3.20
2010,04,09,08,06,1.60
2010,04,09,08,07,3.20
2010,04,09,08,08,4.80
2010,04,09,08,09,4.80
2010,04,09,08,12,1.60
2010,04,09,08,13,1.60
2010,04,09,08,14,3.20
2010,04,09,08,15,4.80
2010,04,09,08,16,3.20
2010,04,09,08,17,6.40
2010,04,09,08,18,6.40
2010,04,09,08,19,3.20
2010,04,09,08,20,3.20
2010,04,09,08,21,4.80
2010,04,09,08,22,6.40
2010,04,09,08,23,3.20
2010,04,09,08,24,4.80
2010,04,09,08,25,1.60
2010,04,09,08,26,3.20
2010,04,09,08,27,6.40
2010,04,09,08,28,1.60
2010,04,09,08,29,3.20
2010,04,09,08,30,1.60
2010,04,09,08,31,4.80
2010,04,09,08,32,9.60
2010,04,09,08,33,9.60
2010,04,09,08,34,11.30
2010,04,09,08,35,6.40
2010,04,09,08,36,8.10
2010,04,09,08,37,8.10
2010,04,09,08,38,9.60
2010,04,09,08,39,8.10
2010,04,09,08,40,6.40
2010,04,09,08,41,8.10
2010,04,09,08,42,4.80
2010,04,09,08,43,4.80
2010,04,09,08,44,3.20
2010,04,09,08,45,3.20
2010,04,09,08,46,3.20
2010,04,09,08,47,1.60
2010,04,09,08,48,4.80
2010,04,09,08,49,4.80
2010,04,09,08,50,8.10
2010,04,09,08,51,3.20
2010,04,09,08,52,6.40
2010,04,09,08,53,3.20
2010,04,09,08,54,3.20
2010,04,09,08,56,8.10
2010,04,09,08,57,6.40
2010,04,09,08,58,3.20
2010,04,09,08,59,9.60
2010,04,09,09,00,6.40
2010,04,09,09,01,4.80
2010,04,09,09,02,3.20
2010,04,09,09,03,1.60
2010,04,09,09,04,6.40
2010,04,09,09,05,4.80
2010,04,09,09,09,1.60
2010,04,09,09,10,1.60
2010,04,09,09,12,1.60
2010,04,09,09,13,1.60
2010,04,09,09,14,1.60
2010,04,09,09,15,4.80
2010,04,09,09,16,4.80
2010,04,09,09,17,6.40
2010,04,09,09,18,3.20
2010,04,09,09,19,4.80
2010,04,09,09,20,6.40
2010,04,09,09,21,3.20
2010,04,09,09,22,4.80
2010,04,09,09,23,8.10
2010,04,09,09,24,6.40
2010,04,09,09,25,3.20
2010,04,09,09,26,3.20
2010,04,09,09,27,3.20
2010,04,09,09,28,6.40
2010,04,09,09,29,1.60
2010,04,09,09,30,3.20
2010,04,09,09,31,3.20
2010,04,09,09,32,6.40
2010,04,09,09,33,8.10
2010,04,09,09,34,6.40
2010,04,09,09,35,6.40
2010,04,09,09,36,6.40
2010,04,09,09,37,4.80
2010,04,09,09,38,8.10
2010,04,09,09,39,8.10
2010,04,09,09,40,8.10
2010,04,09,09,41,6.40
2010,04,09,09,42,11.30
2010,04,09,09,43,9.60
2010,04,09,09,44,11.30
2010,04,09,09,45,9.60
2010,04,09,09,46,11.30
2010,04,09,09,47,11.30
2010,04,09,09,48,9.60
2010,04,09,09,49,11.30
2010,04,09,09,50,16.10
2010,04,09,09,51,11.30
2010,04,09,09,52,11.30
2010,04,09,09,53,11.30
2010,04,09,09,54,9.60
2010,04,09,09,55,8.10
2010,04,09,09,56,11.30
2010,04,09,09,57,11.30
2010,04,09,09,58,11.30
2010,04,09,09,59,11.30
2010,04,09,10,00,6.40
2010,04,09,10,01,9.60
2010,04,09,10,02,9.60
2010,04,09,10,03,9.60
2010,04,09,10,04,8.10
2010,04,09,10,05,8.10
2010,04,09,10,06,8.10
2010,04,09,10,07,11.30
2010,04,09,10,08,9.60
2010,04,09,10,09,8.10
2010,04,09,10,10,8.10
2010,04,09,10,11,8.10
2010,04,09,10,12,8.10
2010,04,09,10,13,4.80
2010,04,09,10,14,1.60
2010,04,09,10,15,3.20
2010,04,09,10,16,8.10
2010,04,09,10,17,4.80
2010,04,09,10,18,3.20
2010,04,09,10,20,4.80
2010,04,09,10,21,4.80
2010,04,09,10,22,4.80
2010,04,09,10,23,9.60
2010,04,09,10,24,8.10
2010,04,09,10,25,14.50
2010,04,09,10,26,8.10
2010,04,09,10,27,6.40
2010,04,09,10,28,9.60
2010,04,09,10,30,11.30
2010,04,09,10,31,16.10
2010,04,09,10,32,8.10
2010,04,09,10,33,8.10
2010,04,09,10,34,8.10
2010,04,09,10,35,9.60
2010,04,09,10,36,9.60
2010,04,09,10,37,8.10
2010,04,09,10,38,4.80
2010,04,09,10,39,11.30
2010,04,09,10,40,14.50
2010,04,09,10,41,11.30
2010,04,09,10,42,6.40
2010,04,09,10,43,11.30
2010,04,09,10,44,14.50
2010,04,09,10,45,6.40
2010,04,09,10,46,6.40
2010,04,09,10,47,4.80
2010,04,09,10,48,14.50
2010,04,09,10,49,9.60
2010,04,09,10,50,11.30
2010,04,09,10,51,9.60
2010,04,09,10,52,11.30
2010,04,09,10,53,14.50
2010,04,09,10,54,11.30
2010,04,09,10,55,14.50
2010,04,09,10,56,9.60
2010,04,09,10,57,11.30
2010,04,09,10,58,12.90
2010,04,09,10,59,8.10
2010,04,09,11,00,11.30
2010,04,09,11,01,8.10
2010,04,09,11,02,16.10
2010,04,09,11,03,6.40
2010,04,09,11,04,1.60
2010,04,09,11,05,11.30
2010,04,09,11,06,16.10
2010,04,09,11,07,17.70
2010,04,09,11,08,11.30
2010,04,09,11,09,9.60
2010,04,09,11,10,11.30
2010,04,09,11,11,9.60
2010,04,09,11,12,8.10
2010,04,09,11,13,9.60
2010,04,09,11,14,17.70
2010,04,09,11,15,9.60
2010,04,09,11,16,9.60
2010,04,09,11,17,9.60
2010,04,09,11,18,11.30
2010,04,09,11,19,16.10
2010,04,09,11,20,16.10
2010,04,09,11,21,12.90
2010,04,09,11,22,8.10
2010,04,09,11,23,11.30
2010,04,09,11,24,8.10
2010,04,09,11,25,11.30
2010,04,09,11,26,14.50
2010,04,09,11,27,11.30
2010,04,09,11,28,12.90
2010,04,09,11,29,12.90
2010,04,09,11,30,8.10
2010,04,09,11,31,6.40
2010,04,09,11,32,6.40
2010,04,09,11,33,6.40
2010,04,09,11,34,6.40
2010,04,09,11,35,9.60
2010,04,09,11,36,14.50
2010,04,09,11,37,11.30
2010,04,09,11,38,11.30
2010,04,09,11,39,14.50
2010,04,09,11,40,11.30
2010,04,09,11,41,14.50
2010,04,09,11,42,17.70
2010,04,09,11,43,17.70
2010,04,09,11,44,17.70
2010,04,09,11,45,16.10
2010,04,09,11,46,11.30
2010,04,09,11,47,12.90
2010,04,09,11,48,8.10
2010,04,09,11,49,8.10
2010,04,09,11,50,9.60
2010,04,09,11,51,8.10
2010,04,09,11,52,11.30
2010,04,09,11,53,9.60
2010,04,09,11,54,6.40
2010,04,09,11,55,20.90
2010,04,09,11,56,20.90
2010,04,09,11,57,19.30
2010,04,09,11,58,14.50
2010,04,09,11,59,11.30
2010,04,09,12,00,6.40
2010,04,09,12,01,20.90
2010,04,09,12,02,19.30
2010,04,09,12,03,17.70
2010,04,09,12,04,16.10
2010,04,09,12,05,11.30
2010,04,09,12,06,16.10
2010,04,09,12,07,16.10
2010,04,09,12,08,9.60
2010,04,09,12,09,17.70
2010,04,09,12,10,20.90
2010,04,09,12,11,16.10
2010,04,09,12,12,16.10
2010,04,09,12,13,16.10
2010,04,09,12,14,16.10
2010,04,09,12,15,24.20
2010,04,09,12,16,14.50
2010,04,09,12,17,16.10
2010,04,09,12,18,11.30
2010,04,09,12,19,14.50
2010,04,09,12,20,14.50
2010,04,09,12,21,19.30
2010,04,09,12,22,17.70
2010,04,09,12,23,19.30
2010,04,09,12,24,17.70
2010,04,09,12,25,16.10
2010,04,09,12,26,9.60
2010,04,09,12,27,4.80
2010,04,09,12,28,14.50
2010,04,09,12,29,14.50
2010,04,09,12,30,14.50
2010,04,09,12,31,4.80
2010,04,09,12,32,8.10
2010,04,09,12,33,17.70
2010,04,09,12,34,16.10
2010,04,09,12,35,16.10
2010,04,09,12,36,27.40
2010,04,09,12,37,16.10
2010,04,09,12,38,14.50
2010,04,09,12,39,19.30
2010,04,09,12,40,22.50
2010,04,09,12,41,11.30
2010,04,09,12,42,14.50
2010,04,09,12,43,17.70
2010,04,09,12,44,17.70
2010,04,09,12,45,17.70
2010,04,09,12,46,11.30
2010,04,09,12,47,17.70
2010,04,09,12,48,20.90
2010,04,09,12,49,19.30
2010,04,09,12,50,16.10
2010,04,09,12,51,17.70
2010,04,09,12,52,12.90
2010,04,09,12,53,14.50
2010,04,09,12,54,11.30
2010,04,09,12,55,6.40
2010,04,09,12,56,9.60
2010,04,09,12,57,11.30
2010,04,09,12,58,6.40
2010,04,09,12,59,9.60
2010,04,09,13,00,16.10
2010,04,09,13,01,16.10
2010,04,09,13,02,14.50
2010,04,09,13,03,8.10
2010,04,09,13,04,6.40
2010,04,09,13,05,8.10
2010,04,09,13,06,14.50
2010,04,09,13,07,8.10
2010,04,09,13,08,4.80
2010,04,09,13,09,8.10
2010,04,09,13,10,16.10
2010,04,09,13,11,6.40
2010,04,09,13,12,3.20
2010,04,09,13,13,8.10
2010,04,09,13,14,4.80
2010,04,09,13,15,6.40
2010,04,09,13,16,9.60
2010,04,09,13,17,6.40
2010,04,09,13,18,6.40
2010,04,09,13,19,4.80
2010,04,09,13,20,3.20
2010,04,09,13,21,3.20
2010,04,09,13,22,4.80
2010,04,09,13,23,4.80
2010,04,09,13,24,4.80
2010,04,09,13,25,4.80
2010,04,09,13,26,9.60
2010,04,09,13,27,11.30
2010,04,09,13,28,8.10
2010,04,09,13,29,11.30
2010,04,09,13,30,4.80
2010,04,09,13,31,8.10
2010,04,09,13,32,4.80
2010,04,09,13,33,4.80
2010,04,09,13,34,9.60
2010,04,09,13,35,11.30
2010,04,09,13,36,6.40
2010,04,09,13,37,16.10
2010,04,09,13,38,9.60
2010,04,09,13,39,4.80
2010,04,09,13,40,8.10
2010,04,09,13,41,8.10
2010,04,09,13,42,3.20
2010,04,09,13,43,3.20
2010,04,09,13,44,3.20
2010,04,09,13,45,8.10
2010,04,09,13,46,11.30
2010,04,09,13,47,11.30
2010,04,09,13,48,3.20
2010,04,09,13,49,3.20
2010,04,09,13,50,9.60
2010,04,09,13,51,1.60
2010,04,09,13,52,3.20
2010,04,09,13,53,8.10
2010,04,09,13,54,1.60
2010,04,09,13,55,3.20
2010,04,09,13,56,11.30
2010,04,09,13,57,4.80
2010,04,09,13,58,9.60
2010,04,09,13,59,8.10
2010,04,09,14,00,8.10
2010,04,09,14,01,3.20
2010,04,09,14,02,11.30
2010,04,09,14,03,8.10
2010,04,09,14,04,9.60
2010,04,09,14,05,8.10
2010,04,09,14,06,6.40
2010,04,09,14,07,6.40
2010,04,09,14,08,3.20
2010,04,09,14,09,3.20
2010,04,09,14,10,1.60
2010,04,09,14,11,1.60
2010,04,09,14,12,9.60
2010,04,09,14,13,6.40
2010,04,09,14,14,8.10
2010,04,09,14,15,9.60
2010,04,09,14,16,8.10
2010,04,09,14,17,9.60
2010,04,09,14,18,9.60
2010,04,09,14,19,4.80
2010,04,09,14,20,11.30
2010,04,09,14,21,11.30
2010,04,09,14,22,8.10
2010,04,09,14,23,11.30
2010,04,09,14,24,9.60
2010,04,09,14,25,6.40
2010,04,09,14,26,9.60
2010,04,09,14,27,17.70
2010,04,09,14,28,14.50
2010,04,09,14,29,6.40
2010,04,09,14,30,6.40
2010,04,09,14,31,9.60
2010,04,09,14,32,9.60
2010,04,09,14,33,14.50
2010,04,09,14,34,16.10
2010,04,09,14,35,9.60
2010,04,09,14,36,16.10
2010,04,09,14,37,11.30
2010,04,09,14,38,8.10
2010,04,09,14,39,8.10
2010,04,09,14,40,12.90
2010,04,09,14,41,20.90
2010,04,09,14,42,17.70
2010,04,09,14,43,16.10
2010,04,09,14,44,11.30
2010,04,09,14,45,16.10
2010,04,09,14,46,6.40
2010,04,09,14,47,14.50
2010,04,09,14,48,11.30
2010,04,09,14,49,11.30
2010,04,09,14,50,4.80
2010,04,09,14,51,14.50
2010,04,09,14,52,20.90
2010,04,09,14,53,8.10
2010,04,09,14,54,17.70
2010,04,09,14,55,17.70
2010,04,09,14,56,9.60
2010,04,09,14,57,17.70
2010,04,09,14,58,14.50
2010,04,09,14,59,16.10
2010,04,09,15,00,17.70
2010,04,09,15,01,14.50
2010,04,09,15,02,8.10
2010,04,09,15,03,6.40
2010,04,09,15,04,8.10
2010,04,09,15,05,4.80
2010,04,09,15,06,12.90
2010,04,09,15,07,14.50
2010,04,09,15,08,16.10
2010,04,09,15,09,14.50
2010,04,09,15,10,8.10
2010,04,09,15,11,6.40
2010,04,09,15,12,3.20
2010,04,09,15,13,4.80
2010,04,09,15,14,6.40
2010,04,09,15,15,1.60
2010,04,09,15,17,3.20
2010,04,09,15,18,8.10
2010,04,09,15,19,9.60
2010,04,09,15,20,8.10
2010,04,09,15,21,4.80
2010,04,09,15,22,11.30
2010,04,09,15,23,9.60
2010,04,09,15,24,14.50
2010,04,09,15,25,9.60
2010,04,09,15,26,4.80
2010,04,09,15,27,8.10
2010,04,09,15,28,6.40
2010,04,09,15,29,12.90
2010,04,09,15,30,9.60
2010,04,09,15,31,16.10
2010,04,09,15,32,11.30
2010,04,09,15,33,16.10
2010,04,09,15,34,12.90
2010,04,09,15,35,11.30
2010,04,09,15,36,9.60
2010,04,09,15,37,12.90
2010,04,09,15,38,11.30
2010,04,09,15,39,9.60
2010,04,09,15,40,9.60
2010,04,09,15,41,11.30
2010,04,09,15,42,9.60
2010,04,09,15,43,8.10
2010,04,09,15,44,12.90
2010,04,09,15,45,12.90
2010,04,09,15,46,9.60
2010,04,09,15,47,11.30
2010,04,09,15,48,6.40
2010,04,09,15,49,8.10
2010,04,09,15,50,1.60
2010,04,09,15,51,8.10
2010,04,09,15,52,8.10
2010,04,09,15,53,11.30
2010,04,09,15,54,14.50
2010,04,09,15,55,8.10
2010,04,09,15,56,3.20
2010,04,09,15,57,3.20
2010,04,09,15,58,3.20
2010,04,09,15,59,3.20
2010,04,09,16,00,4.80
2010,04,09,16,01,3.20
2010,04,09,16,02,3.20
2010,04,09,16,03,3.20
2010,04,09,16,04,4.80
2010,04,09,16,05,8.10
2010,04,09,16,06,6.40
2010,04,09,16,07,6.40
2010,04,09,16,08,4.80
2010,04,09,16,09,8.10
2010,04,09,16,10,11.30
2010,04,09,16,11,9.60
2010,04,09,16,12,4.80
2010,04,09,16,13,4.80
2010,04,09,16,14,6.40
2010,04,09,16,15,8.10
2010,04,09,16,16,6.40
2010,04,09,16,17,8.10
2010,04,09,16,18,4.80
2010,04,09,16,19,4.80
2010,04,09,16,20,16.10
2010,04,09,16,21,6.40
2010,04,09,16,22,6.40
2010,04,09,16,23,6.40
2010,04,09,16,24,6.40
2010,04,09,16,25,1.60
2010,04,09,16,26,4.80
2010,04,09,16,27,16.10
2010,04,09,16,28,17.70
2010,04,09,16,29,11.30
2010,04,09,16,30,4.80
2010,04,09,16,31,11.30
2010,04,09,16,32,9.60
2010,04,09,16,33,11.30
2010,04,09,16,34,11.30
2010,04,09,16,35,6.40
2010,04,09,16,36,6.40
2010,04,09,16,37,12.90
2010,04,09,16,38,6.40
2010,04,09,16,39,1.60
2010,04,09,16,40,1.60
2010,04,09,16,41,1.60
2010,04,09,16,42,4.80
2010,04,09,16,43,9.60
2010,04,09,16,44,8.10
2010,04,09,16,45,6.40
2010,04,09,16,46,3.20
2010,04,09,16,47,6.40
2010,04,09,16,48,3.20
2010,04,09,16,49,11.30
2010,04,09,16,50,11.30
2010,04,09,16,51,8.10
2010,04,09,16,52,8.10
2010,04,09,16,53,8.10
2010,04,09,16,54,8.10
2010,04,09,16,55,4.80
2010,04,09,16,56,11.30
2010,04,09,16,57,8.10
2010,04,09,16,58,11.30
2010,04,09,16,59,8.10
2010,04,09,17,00,8.10
2010,04,09,17,01,3.20
2010,04,09,17,02,6.40
2010,04,09,17,03,6.40
2010,04,09,17,04,8.10
2010,04,09,17,05,9.60
2010,04,09,17,06,3.20
2010,04,09,17,07,3.20
2010,04,09,17,08,1.60
2010,04,09,17,09,9.60
2010,04,09,17,10,14.50
2010,04,09,17,11,9.60
2010,04,09,17,12,4.80
2010,04,09,17,13,9.60
2010,04,09,17,14,9.60
2010,04,09,17,15,4.80
2010,04,09,17,16,6.40
2010,04,09,17,17,11.30
2010,04,09,17,18,11.30
2010,04,09,17,19,8.10
2010,04,09,17,20,4.80
2010,04,09,17,21,8.10
2010,04,09,17,22,4.80
2010,04,09,17,23,4.80
2010,04,09,17,24,8.10
2010,04,09,17,25,8.10
2010,04,09,17,26,9.60
2010,04,09,17,27,4.80
2010,04,09,17,28,4.80
2010,04,09,17,29,3.20
2010,04,09,17,30,8.10
2010,04,09,17,31,6.40
2010,04,09,17,32,8.10
2010,04,09,17,33,1.60
2010,04,09,17,34,8.10
2010,04,09,17,35,12.90
2010,04,09,17,36,6.40
2010,04,09,17,37,8.10
2010,04,09,17,38,8.10
2010,04,09,17,39,8.10
2010,04,09,17,40,3.20
2010,04,09,17,41,9.60
2010,04,09,17,42,9.60
2010,04,09,17,43,9.60
2010,04,09,17,44,8.10
2010,04,09,17,45,6.40
2010,04,09,17,46,3.20
2010,04,09,17,47,3.20
2010,04,09,17,48,1.60
2010,04,09,17,49,1.60
2010,04,09,17,52,1.60
2010,04,09,17,53,9.60
2010,04,09,17,54,3.20
2010,04,09,17,57,1.60
2010,04,09,17,58,1.60
2010,04,09,17,59,8.10
2010,04,09,18,00,4.80
2010,04,09,18,01,1.60
2010,04,09,18,02,1.60
2010,04,09,18,04,1.60
2010,04,09,18,05,4.80
2010,04,09,18,07,1.60
2010,04,09,18,08,6.40
2010,04,09,18,09,3.20
2010,04,09,18,11,1.60
2010,04,09,18,12,1.60
2010,04,09,18,13,4.80
2010,04,09,18,14,3.20
2010,04,09,18,15,9.60
2010,04,09,18,16,9.60
2010,04,09,18,17,8.10
2010,04,09,18,18,9.60
2010,04,09,18,19,11.30
2010,04,09,18,20,4.80
2010,04,09,18,21,3.20
2010,04,09,18,22,4.80
2010,04,09,18,23,1.60
2010,04,09,18,24,11.30
2010,04,09,18,25,11.30
2010,04,09,18,26,8.10
2010,04,09,18,27,6.40
2010,04,09,18,28,3.20
2010,04,09,18,29,14.50
2010,04,09,18,30,9.60
2010,04,09,18,31,12.90
2010,04,09,18,32,11.30
2010,04,09,18,33,9.60
2010,04,09,18,34,6.40
2010,04,09,18,35,6.40
2010,04,09,18,36,4.80
2010,04,09,18,37,6.40
2010,04,09,18,38,6.40
2010,04,09,18,39,4.80
2010,04,09,18,40,3.20
2010,04,09,18,41,8.10
2010,04,09,18,42,4.80
2010,04,09,18,43,3.20
2010,04,09,18,44,3.20
2010,04,09,18,45,4.80
2010,04,09,18,46,6.40
2010,04,09,18,47,6.40
2010,04,09,18,48,3.20
2010,04,09,18,49,4.80
2010,04,09,18,50,4.80
2010,04,09,18,51,4.80
2010,04,09,18,52,1.60
2010,04,09,18,53,4.80
2010,04,09,18,54,4.80
2010,04,09,18,55,1.60
2010,04,09,18,56,1.60
2010,04,09,18,57,1.60
2010,04,09,18,58,3.20
2010,04,09,18,59,4.80
2010,04,09,19,00,3.20
2010,04,09,19,01,4.80
2010,04,09,19,02,3.20
2010,04,09,19,03,1.60
2010,04,09,19,06,3.20
2010,04,09,19,31,4.80
2010,04,09,19,32,6.40
2010,04,09,19,33,6.40
2010,04,09,19,34,6.40
2010,04,09,19,35,4.80
2010,04,09,19,36,3.20
2010,04,09,19,55,1.60
2010,04,09,19,56,1.60
2010,04,09,20,04,1.60
2010,04,09,20,11,1.60
2010,04,09,20,12,3.20
2010,04,09,20,13,3.20
2010,04,09,20,14,3.20
2010,04,09,20,15,4.80
2010,04,09,20,16,3.20
2010,04,09,20,18,3.20
2010,04,09,20,19,3.20
2010,04,09,20,20,3.20
2010,04,09,20,21,1.60
2010,04,09,20,22,1.60
2010,04,09,20,23,1.60
2010,04,09,20,24,3.20
2010,04,09,20,25,1.60
2010,04,09,20,27,3.20
2010,04,09,20,28,3.20
2010,04,09,20,29,4.80
2010,04,09,20,30,6.40
2010,04,09,20,31,6.40
2010,04,09,20,32,6.40
2010,04,09,20,33,3.20
2010,04,09,20,34,4.80
2010,04,09,20,35,4.80
2010,04,09,20,36,4.80
2010,04,09,20,37,1.60
2010,04,09,20,38,1.60
2010,04,09,20,39,1.60
2010,04,09,20,41,1.60
2010,04,09,20,51,1.60
2010,04,09,20,52,1.60
2010,04,09,20,57,1.60
2010,04,09,21,31,1.60
2010,04,09,21,32,1.60
2010,04,09,21,34,1.60
2010,04,09,22,36,1.60
2010,04,09,22,56,1.60
2010,04,09,23,32,1.60
2010,04,09,23,33,1.60
